User: anonymous   Login
Location: Observatorio Las Palmas
(29.0667°N, 110.9333°W)
Time: 04:05:42
(UTC-07:00)
Language:

Skynet4D Del rocket - Orbit

View from above orbital plane
View from above orbital plane
View from above satellite
View from above satellite

Ground track
Ground track

The orbit data is extracted from the following two-line orbital elements,

1 25135U 98002B   18144.46488056 +.00000122 +00000-0 +86307-5 0  9998
2 25135 026.8818 148.9617 0356544 101.0080 032.6411 13.62364389014809
Epoch (UTC): 24 May 2018 11:09:25
Eccentricity: 0.0356544
inclination: 26.8818°
perigee height: 763 km
apogee height: 1291 km
right ascension of ascending node: 148.9617°
argument of perigee: 101.0080°
revolutions per day: 13.62364389
mean anomaly at epoch: 32.6411°
orbit number at epoch: 1480

The dashed part of the orbit path shows where the satellite is in the earth's shadow,  

DLR